HKJKHTMW

Guest
Details From HKJK - Nairobi Jomo Kanyatta Intl
To HTMW - MWANZA
Flight Number -
Tags generated
Created
Modified
Stats Distance 249 nm / 462 km
Max Altitude 32,400 ft / 9,876 m
Waypoints 5
Social Downloads 0
Likes 0
Share VATSIM

Download

Looking for another format? Having issues loading an existing format? Contact us
Advertisement - Login to hide

Notes

Basic altitude profile: - Ascent Rate: 2500ft/min - Ascent Speed: 250kts - Cruise Altitude: 35000ft - Cruise Speed: 420kts - Descent Rate: 1500ft/min - Descent Speed: 250kts Options: - Use NATs: yes - Use PACOTS: yes - Use low airways: yes - Use high airways: yes

Route

HKJK PARIN UG450 NIBOT HTMW

ID Type Via Altitude (ft/m) Position (lat/lon) Dist (leg/tot) Name
O HKJK APT - 0 / 0 -1.31707 / 36.93076 - / 0 nm Nairobi Jomo Kanyatta Intl
PARIN FIX - 32,400 / 9,876 -1.75453 / 35.35657 98 / 98 nm
EGLOX FIX UG450 (AWY-HI) 26,500 / 8,077 -1.85647 / 34.99546 22 / 120 nm
NIBOT FIX UG450 (AWY-HI) 24,500 / 7,468 -2.01423 / 34.43739 34 / 155 nm
O HTMW APT - 0 / 0 -2.44448 / 32.93266 93 / 249 nm MWANZA

Altitude Profile

Advertisement - Login to hide

Weather


0- 5 10 15 20 25 30 35+ Temperature / °C

Clouds and Precipitation
Forecast for 2019-10-16 00:00 UTC. Updated 2 hours ago

Ground ~20,000 ft ~40,000 ft Winds

HKJK

Details ICAO HKJK (NBO)
Name Nairobi Jomo Kenyatta Intl
Region Kenya
Timezone Africa/Nairobi (UTC+3.0)
Stats Elevation 5,330 ft / 1,625 m (AMSL)
Location -1.316660° 36.931400°
Runways 1
Magnetic Variation 0.642° E

METAR

HKJK 152230Z 35002KT 9999 SCT020 17/16 Q1020 NOSIG

Decode

TAF

TAF HKJK 151100Z 1512/1618 09010KT 9999 BKN028 BECMG 1520/1523 06005KT BKN018 BECMG 1608/1611 09010KT BKN025 PROB30 TEMPO 0612/0618 -SHRA FEW024CB SCT025 BKN080

Decode

Departure Runways

ID Width Length Bearing (true/mag) Surface Threshold Overrun Markings Lighting
06 148 ft / 45 m 13,528 ft / 4,123 m 53.83° / 53.19° ASPHALT 0 ft / 0 m 194 ft / 59 m PREC-APP CENTERLINE EDGE THRESHOLD CALVERT-ILS
24 148 ft / 45 m 13,528 ft / 4,123 m 233.83° / 233.19° ASPHALT 0 ft / 0 m 197 ft / 60 m PREC-APP CENTERLINE EDGE THRESHOLD MALSF

HTMW

Details ICAO HTMW (MWZ)
Name MWANZA
Region Tanzania
Timezone Africa/Dar_es_Salaam (UTC+3.0)
Stats Elevation 3,763 ft / 1,147 m (AMSL)
Location -2.444510° 32.932600°
Runways 1
Magnetic Variation 0.972° E

METAR

HTMW 152300Z 00000KT 9999 FEW019 FEW023CB BKN100 22/20 Q1014 NOSIG

Decode

TAF

HTMW 151700Z 1518/1618 00000KT 9999 SCT024 FEW025CB TEMPO 1600/1606 12010KT TS/TSRA BKN022 FEW023CB BECMG 1611/1613 33010KT NSW FEW027 FEW028CB

Decode

Destination Runways

ID Width Length Bearing (true/mag) Surface Threshold Overrun Markings Lighting
12 148 ft / 45 m 10,837 ft / 3,303 m 116.54° / 115.57° ASPHALT 308 ft / 94 m 614 ft / 187 m APP EDGE THRESHOLD
30 148 ft / 45 m 10,837 ft / 3,303 m 296.54° / 295.57° ASPHALT 108 ft / 33 m 1,631 ft / 497 m APP EDGE THRESHOLD SALS

Popular Alternatives